Regional Weather Roundup
Issued by NWS

Home | Current Version | Previous Version | Graphics & Text | Print | Product List | Glossary On
Versions: 1 2 3 4 5 6 7 8 9 10 11 12 13 14 15 16 17 18 19 20 21 22 23 24 25 26 27 28 29 30 31 32 33 34 35 36 37 38 39 40 41 42 43 44 45 46 47
000
ASUS45 KBOU 181607
RWRCO

WEATHER ROUNDUP FOR COLORADO
NATIONAL WEATHER SERVICE DENVER/BOULDER CO
1000 AM MDT THU SEP 18 2014

NOTE: "FAIR" INDICATES FEW OR NO CLOUDS BELOW 12000 FEET WITH NO
SIGNIFICANT WEATHER AND/OR OBSTRUCTIONS TO VISIBILITY.

COZ001>005-013-030-031-181700-
...NORTHWEST COLORADO...

CITY           SKY/WX    TMP DP  RH WIND       PRES   REMARKS
CRAIG          SUNNY     63  43  48 CALM      30.14S
HAYDEN         SUNNY     64  37  36 E13       30.16S
MEEKER         SUNNY     62  39  42 CALM      30.15S
MOUNT WERNER   NOT AVBL
STEAMBOAT SPGS SUNNY     58  41  53 CALM      30.18F
WALDEN         SUNNY     54  37  54 S3        30.28S
$$

COZ006>008-011-181700-
...WEST CENTRAL VALLEYS...

CITY           SKY/WX    TMP DP  RH WIND       PRES   REMARKS
GRAND JUNCTION SUNNY     71  42  35 S6        30.05S
MONTROSE       SUNNY     69  43  38 CALM      30.13F
EAGLE          SUNNY     55  37  50 CALM      30.24F
RIFLE          SUNNY     65  40  39 NE3       30.12F
DELTA          SUNNY     68  43  40 S3        30.10S HAZE
NUCLA          SUNNY     64  43  45 CALM      30.17S
$$

COZ017>023-064>068-181700-
...SOUTHWEST COLORADO...

CITY           SKY/WX    TMP DP  RH WIND       PRES   REMARKS
DURANGO        SUNNY     62  47  57 CALM      30.17S
CORTEZ         SUNNY     65  49  56 CALM      30.13F
PAGOSA SPRINGS SUNNY     66  39  37 CALM      30.23F
TELLURIDE      NOT AVBL
WOLF CREEK PAS SUNNY     50  34  53 NE12G20   30.52S
$$

COZ009-010-012-014-032>034-037-058>063-181700-
...CENTRAL COLORADO...

CITY           SKY/WX    TMP DP  RH WIND       PRES   REMARKS
ASPEN          SUNNY     63  38  39 N5        30.25S
BUENA VISTA    SUNNY     63  34  33 CALM      30.28F
COPPER MTN     SUNNY     61  21  21 SW3       30.55S
BERTHOUD PASS  FAIR      50  46  87 MISG      30.60S
COTTONWOOD PAS SUNNY     64  32  29 SE6       30.40S
GUNNISON       SUNNY     54  36  50 CALM      30.31F
KREMMLING      SUNNY     54  36  50 CALM      30.28F
LEADVILLE      SUNNY     56  32  40 CALM      30.39F
SALIDA         SUNNY     62  38  40 CALM      30.34F
SUNLIGHT       SUNNY     59  34  38 CALM      30.47R
WILKERSON PASS NOT AVBL
$$

COZ069>075-181700-
...SAN LUIS VALLEY/SANGRE DE CRISTO MOUNTAINS...

CITY           SKY/WX    TMP DP  RH WIND       PRES   REMARKS
ALAMOSA        SUNNY     61  41  47 NW6       30.25S
LA VETA PASS   NOT AVBL
SAGUACHE       NOT AVBL
$$

COZ035-036-038>040-181700-
...NORTHERN COLORADO FRONT RANGE...

CITY           SKY/WX    TMP DP  RH WIND       PRES   REMARKS
DENVER INTL AP MOSUNNY   74  41  30 W7        30.07S
DMNS CITY PARK   N/A     73  43  34 S5        30.06F
AURORA         NOT AVBL
FRONT RANGE AP SUNNY     77  43  29 SW6       30.08S
ERIE MUNI ARPT SUNNY     74  40  29 CALM      30.05F
BOULDER MUN AP SUNNY     72  45  37 CALM      30.06S
CENTENNIAL     MOSUNNY   73  39  29 W7        30.10S
BROOMFIELD     SUNNY     73  39  29 CALM      30.09S
FORT COLLINS   SUNNY     68  48  49 SE5       30.06S
LONGMONT       SUNNY     75  46  34 CALM      30.06S
$$

COZ041-046-047-076>085-087-088-181700-
...PIKES PEAK/PALMER DIVIDE AND SOUTHERN FOOTHILLS...

CITY           SKY/WX    TMP DP  RH WIND       PRES   REMARKS
COLO. SPRINGS  MOSUNNY   78  35  21 S5        30.14R
A. F. ACADEMY  NOT AVBL
ELLICOTT       NOT AVBL
FALCON         SUNNY     77  37  23 S5        30.19S
FORT CARSON    NOT AVBL
LIMON          SUNNY     76  43  30 CALM      30.07S
MONUMENT HILL  SUNNY     73  34  23 NW3       30.18R
TRINIDAD       SUNNY     74  34  23 CALM      30.11S
$$

COZ042>045-048>051-090-091-181700-
...NORTHEAST COLORADO...

CITY           SKY/WX    TMP DP  RH WIND       PRES   REMARKS
GREELEY ARPT   SUNNY     66  46  48 SW5       30.04
AKRON          SUNNY     72  47  40 VRB6      30.04R
BURLINGTON     CLOUDY    63  61  93 VRB5      30.03R
WRAY           PTSUNNY   70  61  73 CALM      30.00S
STERLING       SUNNY     68  52  56 S5        29.99F
HOLYOKE        CLOUDY    72  64  78 SE7       30.00F
FORT MORGAN    SUNNY     69  47  44 W6        30.03S
$$

COZ086-089-092>099-181700-
...SOUTHEAST COLORADO...

CITY           SKY/WX    TMP DP  RH WIND       PRES   REMARKS
PUEBLO         SUNNY     77  39  25 VRB5      30.03S
LA JUNTA       SUNNY     71  45  39 VRB5      30.02R
LAMAR          SUNNY     73  45  36 W8        29.99R
SPRINGFIELD      N/A     81  48  31 S7        30.03S
$$


USA.gov is the U.S. government's official web portal to all federal, state and local government web resources and services.